Weather History for KDXX - February, 2014

Change the Weather History Date:

Saturday, February 1, 2014

  Actual Average (KAQP) Record (KAQP)
Temperature  
Mean Temperature 12 °F -  
Max Temperature 24 °F 22 °F 53 °F (2012)
Min Temperature 1 °F 5 °F -16 °F (2013)
Degree Days  
Heating Degree Days 52    
Moisture  
Dew Point 7 °F    
Average Humidity 74    
Maximum Humidity 85    
Minimum Humidity 63    
Precipitation  
Precipitation 0.00 in - - ()
Sea Level Pressure  
Sea Level Pressure 30.03 in    
Wind  
Wind Speed 14 mph (WNW)    
Max Wind Speed 21 mph    
Max Gust Speed 25 mph    
Visibility 9 miles    
Events Snow    
Averages and records for this station are not official NWS values.
T = Trace of Precipitation, MM = Missing Value Source: NWS Daily Summary

Daily Weather History Graph

Daily Weather History Graph

Search for Another Location

Airport or City:

Trip Planner

Search our weather history database for the weather conditions in past years. The results will help you decide how hot, cold, wet, or windy it might be!

Date:

Astronomy

Feb. 01, 2014 Rise Set
Actual Time 7:44 AM CST 5:32 PM CST
Civil Twilight 7:13 AM CST 6:04 PM CST
Nautical Twilight 6:38 AM CST 6:39 PM CST
Astronomical Twilight 6:03 AM CST 7:13 PM CST
Moon 8:27 AM CST (2/1) 8:18 PM CST (2/1)
Length of Visible Light 10h 50m
Length of Day
9h 48m
Waxing Crescent, 5% of the Moon is Illuminated
Feb 1
Waxing Crescent
Feb 6
First Quarter
Feb 14
Full
Feb 22
Last Quarter
Mar 1
New

Hourly Weather History & Observations

Time (CST) Temp. Windchill Dew Point Humidity Pressure Visibility Wind Dir Wind Speed Gust Speed Precip Events Conditions
12:13 AM 21.2 °F 6.4 °F 10.4 °F 63% 29.84 in 10.0 mi South 18.4 mph - N/A   Scattered Clouds
12:34 AM 21.2 °F 7.8 °F 10.4 °F 63% 29.84 in 10.0 mi South 15.0 mph - N/A   Clear
12:54 AM 23.0 °F 10.1 °F 12.2 °F 63% 29.83 in 10.0 mi South 15.0 mph - N/A   Mostly Cloudy
1:13 AM 23.0 °F 12.4 °F 14.0 °F 68% 29.83 in 10.0 mi South 10.4 mph - N/A   Overcast
1:34 AM 23.0 °F 11.7 °F 14.0 °F 68% 29.83 in 10.0 mi South 11.5 mph - N/A   Scattered Clouds
1:54 AM 23.0 °F 12.4 °F 14.0 °F 68% 29.82 in 10.0 mi SSW 10.4 mph - N/A   Clear
2:13 AM 23.0 °F 11.1 °F 15.8 °F 74% 29.82 in 10.0 mi SSW 12.7 mph - N/A   Clear
2:34 AM 24.8 °F 11.1 °F 15.8 °F 69% 29.83 in 10.0 mi SW 18.4 mph - N/A   Scattered Clouds
2:54 AM 23.0 °F 10.6 °F 15.8 °F 74% 29.83 in 10.0 mi SW 13.8 mph - N/A   Clear
3:13 AM 24.8 °F 13.4 °F 15.8 °F 69% 29.84 in 10.0 mi WSW 12.7 mph - N/A   Clear
3:33 AM 24.8 °F 14.6 °F 15.8 °F 69% 29.84 in 10.0 mi WSW 10.4 mph - N/A   Scattered Clouds
3:54 AM 23.0 °F 10.6 °F 15.8 °F 74% 29.83 in 10.0 mi WSW 13.8 mph - N/A   Scattered Clouds
4:13 AM 21.2 °F 10.1 °F 15.8 °F 80% 29.85 in 10.0 mi West 10.4 mph - N/A   Clear
4:33 AM 21.2 °F 10.1 °F 15.8 °F 80% 29.86 in 10.0 mi West 10.4 mph - N/A   Clear
4:53 AM 19.4 °F 7.9 °F 14.0 °F 80% 29.86 in 10.0 mi West 10.4 mph - N/A   Clear
5:14 AM 19.4 °F 6.0 °F 12.2 °F 74% 29.87 in 10.0 mi West 13.8 mph - N/A   Clear
5:33 AM 19.4 °F 6.0 °F 12.2 °F 74% 29.88 in 10.0 mi WNW 13.8 mph - N/A   Clear
5:53 AM 17.6 °F 3.7 °F 12.2 °F 79% 29.89 in 10.0 mi WNW 13.8 mph - N/A   Clear
6:14 AM 15.8 °F 1.4 °F 10.4 °F 79% 29.91 in 10.0 mi WNW 13.8 mph - N/A   Clear
6:33 AM 15.8 °F 1.4 °F 8.6 °F 73% 29.92 in 10.0 mi NW 13.8 mph - N/A   Clear
6:53 AM 14.0 °F 0.5 °F 8.6 °F 79% 29.93 in 10.0 mi NW 11.5 mph - N/A   Clear
7:14 AM 12.2 °F -1.8 °F 6.8 °F 79% 29.94 in 10.0 mi NW 11.5 mph - N/A   Clear
7:33 AM 12.2 °F -1.8 °F 6.8 °F 79% 29.95 in 10.0 mi NW 11.5 mph - N/A   Clear
7:53 AM 12.2 °F -2.5 °F 6.8 °F 79% 29.95 in 10.0 mi NW 12.7 mph - N/A   Clear
8:14 AM 12.2 °F -3.1 °F 6.8 °F 79% 29.97 in 10.0 mi NW 13.8 mph - N/A   Clear
8:33 AM 12.2 °F -3.7 °F 6.8 °F 79% 29.98 in 10.0 mi NW 15.0 mph - N/A   Clear
8:53 AM 12.2 °F -1.0 °F 5.0 °F 73% 30.00 in 10.0 mi NW 10.4 mph - N/A   Clear
9:14 AM 12.2 °F -3.1 °F 5.0 °F 73% 30.01 in 10.0 mi NW 13.8 mph - N/A   Clear
9:33 AM 12.2 °F -3.1 °F 6.8 °F 79% 30.02 in 10.0 mi NW 13.8 mph - N/A   Clear
9:53 AM 12.2 °F -3.7 °F 6.8 °F 79% 30.03 in 10.0 mi NW 15.0 mph - N/A   Clear
10:14 AM 14.0 °F -1.4 °F 6.8 °F 73% 30.04 in 10.0 mi NW 15.0 mph - N/A   Clear
10:33 AM 15.8 °F 0.9 °F 8.6 °F 73% 30.05 in 10.0 mi NW 15.0 mph - N/A   Clear
10:54 AM 15.8 °F -1.1 °F 8.6 °F 73% 30.06 in 4.0 mi NW 19.6 mph 23.0 mph N/A Snow Light Snow
11:14 AM 15.8 °F -1.1 °F 10.4 °F 79% 30.06 in 5.0 mi NNW 19.6 mph 25.3 mph N/A Snow Light Snow
11:33 AM 15.8 °F -0.2 °F 8.6 °F 73% 30.07 in 5.0 mi NNW 17.3 mph - N/A   Haze
11:54 AM 15.8 °F -1.1 °F 8.6 °F 73% 30.07 in 7.0 mi NNW 19.6 mph - N/A   Mostly Cloudy
12:14 PM 15.8 °F -0.2 °F 8.6 °F 73% 30.07 in 2.5 mi North 17.3 mph - N/A Snow Light Snow
12:33 PM 15.8 °F 0.3 °F 8.6 °F 73% 30.09 in 7.0 mi North 16.1 mph 20.7 mph N/A Snow Light Snow
12:54 PM 14.0 °F -2.5 °F 6.8 °F 73% 30.09 in 10.0 mi NNW 17.3 mph - N/A   Scattered Clouds
1:14 PM 14.0 °F -0.8 °F 6.8 °F 73% 30.09 in 7.0 mi NNW 13.8 mph 19.6 mph N/A Snow Light Snow
1:33 PM 14.0 °F -2.5 °F 6.8 °F 73% 30.10 in 10.0 mi NW 17.3 mph - N/A   Mostly Cloudy
1:54 PM 14.0 °F -0.8 °F 6.8 °F 73% 30.10 in 10.0 mi NW 13.8 mph - N/A   Scattered Clouds
2:14 PM 14.0 °F -3.0 °F 6.8 °F 73% 30.10 in 4.0 mi NNW 18.4 mph 25.3 mph N/A Snow Light Snow
2:33 PM 12.2 °F -6.3 °F 5.0 °F 73% 30.11 in 10.0 mi NNW 20.7 mph - N/A   Scattered Clouds
2:54 PM 12.2 °F -4.8 °F 5.0 °F 73% 30.11 in 10.0 mi NNW 17.3 mph 25.3 mph N/A   Scattered Clouds
3:13 PM 12.2 °F -3.1 °F 5.0 °F 73% 30.13 in 10.0 mi NW 13.8 mph - N/A   Clear
3:33 PM 12.2 °F -3.7 °F 3.2 °F 67% 30.14 in 10.0 mi NNW 15.0 mph - N/A   Clear
3:54 PM 12.2 °F -4.3 °F 3.2 °F 67% 30.14 in 10.0 mi NNW 16.1 mph - N/A   Clear
4:13 PM 12.2 °F -3.7 °F 3.2 °F 67% 30.15 in 10.0 mi NNW 15.0 mph 19.6 mph N/A   Clear
4:34 PM 10.4 °F -4.1 °F 3.2 °F 73% 30.16 in 10.0 mi NNW 11.5 mph - N/A   Clear
4:54 PM 10.4 °F -4.1 °F 3.2 °F 73% 30.17 in 10.0 mi NNW 11.5 mph - N/A   Clear
5:13 PM 10.4 °F -2.4 °F 1.4 °F 67% 30.18 in 10.0 mi NNW 9.2 mph - N/A   Clear
5:34 PM 8.6 °F -3.7 °F 1.4 °F 73% 30.18 in 10.0 mi NNW 8.1 mph - N/A   Clear
5:54 PM 6.8 °F -3.5 °F -0.4 °F 72% 30.19 in 10.0 mi NW 5.8 mph - N/A   Clear
6:13 PM 6.8 °F -4.8 °F -0.4 °F 72% 30.19 in 10.0 mi NW 6.9 mph - N/A   Clear
6:34 PM 6.8 °F -5.9 °F -0.4 °F 72% 30.20 in 10.0 mi NW 8.1 mph - N/A   Clear
6:54 PM 3.2 °F -4.2 °F -2.2 °F 78% 30.21 in 10.0 mi WNW 3.5 mph - N/A   Clear
9:34 PM 1.4 °F -8.3 °F -5.8 °F 72% 30.23 in 10.0 mi West 4.6 mph - N/A   Clear
9:48 PM 1.4 °F -11.3 °F -5.8 °F 72% 30.23 in 10.0 mi West 6.9 mph - N/A   Clear
10:14 PM 1.4 °F -12.5 °F -5.8 °F 72% 30.23 in 10.0 mi West 8.1 mph - N/A   Clear
10:33 PM 1.4 °F -12.5 °F -4.0 °F 78% 30.24 in 10.0 mi West 8.1 mph - N/A   Clear
10:54 PM 1.4 °F -11.3 °F -4.0 °F 78% 30.24 in 10.0 mi West 6.9 mph - N/A   Clear
11:14 PM 1.4 °F -8.3 °F -4.0 °F 78% 30.24 in 10.0 mi WNW 4.6 mph - N/A   Clear
11:34 PM 1.4 °F -11.3 °F -2.2 °F 85% 30.24 in 10.0 mi West 6.9 mph - N/A   Clear
11:53 PM 1.4 °F - -4.0 °F 78% 30.24 in 10.0 mi Calm Calm - N/A   Clear